Вернуться в каталог

SL-16 DEB

АктивенLEO
NORAD 39852·DEBRIS·🇷🇺 Russia

Запущен Dec 25, 1992 с Baikonur Cosmodrome

Loading…

Ближайшие Пролёты (ближайшие 24 часа)

TLE

УстаревающийSource: Space-Track

Эпоха: Sep 11, 2026, 09:37 UTC

1 39852U 92093LE  26254.40075457  .00002634  00000-0  49424-3 0  9992
2 39852  70.9983 304.3832 0004604 264.8551  95.2073 14.65698563 16122

Отслеживайте SL-16 DEB в реальном времени с AllMySat

Download on the App Store